This demonstration page uses our WeatherBlox Daily Observations layout. Learn more.

Left ArrowRight Arrow

Hourly Observations for September 27, 2017

Temp ( °F °C ) Dew Point ( °F °C ) Humidity (%) Winds ( mph kmh ) Pressure ( in mb ) Visibility ( mi km ) Precip ( " mm )
12:15 am 00:15 Clear 70 21 68 20 94 94 Calm 29.94 1014 10 16 0.00 0.00
12:35 am 00:35 Clear 70 21 68 20 94 94 Calm 29.94 1014 10 16 0.00 0.00
12:55 am 00:55 Clear 70 21 68 20 94 94 N 3 6 29.94 1014 10 16 0.00 0.00
1:15 am 01:15 Clear 70 21 68 20 94 94 Calm 29.94 1014 10 16 0.00 0.00
1:35 am 01:35 Clear 68 20 68 20 100 100 Calm 29.94 1014 10 16 0.00 0.00
1:55 am 01:55 Clear 70 21 68 20 94 94 N 3 6 29.94 1014 10 16 0.00 0.00
2:15 am 02:15 Clear 70 21 68 20 94 94 N 5 7 29.94 1014 10 16 0.00 0.00
2:35 am 02:35 Clear 70 21 68 20 94 94 NNE 5 7 29.94 1014 10 16 0.00 0.00
2:55 am 02:55 Clear 70 21 68 20 94 94 NNE 3 6 29.94 1014 10 16 0.00 0.00
3:15 am 03:15 Clear 70 21 68 20 94 94 N 8 13 29.94 1014 10 16 0.00 0.00
3:35 am 03:35 Clear 70 21 68 20 94 94 N 9 15 29.94 1014 10 16 0.00 0.00
3:55 am 03:55 Clear 70 21 68 20 94 94 N 7 11 29.94 1014 10 16 0.00 0.00
4:15 am 04:15 Clear 70 21 68 20 94 94 N 7 11 29.94 1014 10 16 0.00 0.00
4:35 am 04:35 Clear 70 21 68 20 94 94 N 7 11 29.94 1014 10 16 0.00 0.00
4:55 am 04:55 Clear 70 21 68 20 94 94 N 6 9 29.94 1014 10 16 0.00 0.00
5:15 am 05:15 Clear 70 21 68 20 94 94 NNE 3 6 29.91 1013 10 16 0.00 0.00
5:35 am 05:35 Clear 70 21 68 20 94 94 NE 3 6 29.94 1014 10 16 0.00 0.00
5:55 am 05:55 Clear 70 21 68 20 94 94 NNE 6 9 29.94 1014 10 16 0.00 0.00
6:15 am 06:15 Clear 70 21 68 20 94 94 NNE 6 9 29.94 1014 10 16 0.00 0.00
6:35 am 06:35 Clear 70 21 68 20 94 94 NNE 7 11 29.94 1014 10 16 0.00 0.00
6:55 am 06:55 Clear 70 21 68 20 94 94 NNE 6 9 29.94 1014 10 16 0.00 0.00
7:15 am 07:15 Sunny 68 20 68 20 100 100 N 7 11 29.94 1014 7 11 0.00 0.00
7:35 am 07:35 Sunny 70 21 68 20 94 94 NNE 6 9 29.94 1014 7 11 0.00 0.00
7:55 am 07:55 Sunny 70 21 68 20 94 94 NNE 7 11 29.94 1014 7 11 0.00 0.00
8:15 am 08:15 Sunny 72 22 70 21 94 94 NE 6 9 29.94 1014 7 11 0.00 0.00
8:35 am 08:35 Sunny 72 22 70 21 94 94 NE 6 9 29.94 1014 7 11 0.00 0.00
8:55 am 08:55 Sunny 73 23 70 21 89 89 NE 5 7 29.94 1014 7 11 0.00 0.00
9:15 am 09:15 Sunny 73 23 70 21 89 89 N 8 13 29.94 1014 10 16 0.00 0.00
9:35 am 09:35 Sunny 73 23 70 21 89 89 NNE 6 9 29.94 1014 10 16 0.00 0.00
9:55 am 09:55 Sunny 77 25 70 21 79 79 N 8 13 29.94 1014 10 16 0.00 0.00
10:15 am 10:15 Sunny 77 25 70 21 79 79 NNE 6 9 29.94 1014 10 16 0.00 0.00
10:35 am 10:35 Sunny 79 26 70 21 74 74 N 8 13 29.94 1014 10 16 0.00 0.00
10:55 am 10:55 Sunny 81 27 72 22 74 74 NNE 8 13 29.94 1014 10 16 0.00 0.00
11:15 am 11:15 Sunny 81 27 70 21 70 70 NNE 13 20 29.94 1014 10 16 0.00 0.00
11:35 am 11:35 Sunny 82 28 70 21 66 66 NNE 9 15 29.91 1013 10 16 0.00 0.00
11:55 am 11:55 Sunny 82 28 68 20 62 62 N 12 19 29.91 1013 10 16 0.00 0.00
12:15 pm 12:15 Sunny 84 29 68 20 58 58 NNE 9 15 29.91 1013 10 16 0.00 0.00
12:35 pm 12:35 Sunny 86 30 70 21 59 59 NNE 10 17 29.85 1011 10 16 0.00 0.00
12:55 pm 12:55 Sunny 86 30 70 21 59 59 NNE 8 13 29.85 1011 10 16 0.00 0.00
1:15 pm 13:15 Sunny 86 30 70 21 59 59 NNE 8 13 29.85 1011 10 16 0.00 0.00
1:35 pm 13:35 Sunny 88 31 70 21 55 55 NNE 9 15 29.85 1011 10 16 0.00 0.00
1:55 pm 13:55 Sunny 88 31 70 21 55 55 NNE 12 19 29.83 1010 7 11 0.00 0.00
2:15 pm 14:15 Sunny 88 31 70 21 55 55 N 10 17 29.83 1010 10 16 0.00 0.00
2:35 pm 14:35 Partly Cloudy 88 31 70 21 55 55 NNE 10 17 29.83 1010 7 11 0.00 0.00
2:55 pm 14:55 Sunny 90 32 68 20 49 49 N 10 17 29.80 1009 10 16 0.00 0.00
3:15 pm 15:15 Sunny 90 32 68 20 49 49 NE 7 11 29.80 1009 10 16 0.00 0.00
3:35 pm 15:35 Partly Cloudy 90 32 70 21 52 52 N 8 13 29.80 1009 10 16 0.00 0.00
3:55 pm 15:55 Partly Cloudy 88 31 70 21 55 55 N 9 15 29.80 1009 10 16 0.00 0.00
4:15 pm 16:15 Mostly Cloudy 88 31 70 21 55 55 N 10 17 29.80 1009 10 16 0.00 0.00
4:35 pm 16:35 Mostly Cloudy 90 32 70 21 52 52 N 9 15 29.80 1009 10 16 0.00 0.00
4:55 pm 16:55 Partly Cloudy 90 32 70 21 52 52 NNE 7 11 29.80 1009 10 16 0.00 0.00
5:15 pm 17:15 Sunny 90 32 70 21 52 52 N 8 13 29.80 1009 10 16 0.00 0.00
5:35 pm 17:35 Sunny 90 32 70 21 52 52 NNE 6 9 29.80 1009 10 16 0.00 0.00
5:55 pm 17:55 Sunny 88 31 70 21 55 55 NNE 8 13 29.80 1009 10 16 0.00 0.00
6:15 pm 18:15 Sunny 88 31 68 20 52 52 N 8 13 29.80 1009 10 16 0.00 0.00
6:35 pm 18:35 Sunny 86 30 70 21 59 59 N 3 6 29.80 1009 10 16 0.00 0.00
6:55 pm 18:55 Sunny 86 30 70 21 59 59 N 5 7 29.80 1009 10 16 0.00 0.00
7:15 pm 19:15 Clear 82 28 68 20 62 62 NNW 3 6 29.83 1010 10 16 0.00 0.00
7:35 pm 19:35 Clear 81 27 70 21 70 70 N 5 7 29.83 1010 10 16 0.00 0.00
7:55 pm 19:55 Clear 81 27 70 21 70 70 N 3 6 29.83 1010 10 16 0.00 0.00
8:15 pm 20:15 Clear 79 26 70 21 74 74 N 3 6 29.83 1010 10 16 0.00 0.00
8:35 pm 20:35 Clear 77 25 70 21 79 79 N 5 7 29.83 1010 10 16 0.00 0.00
8:55 pm 20:55 Clear 77 25 70 21 79 79 Calm 29.83 1010 10 16 0.00 0.00
9:15 pm 21:15 Clear 77 25 68 20 74 74 N 6 9 29.83 1010 10 16 0.00 0.00
9:35 pm 21:35 Clear 75 24 68 20 78 78 NNW 6 9 29.83 1010 10 16 0.00 0.00
9:55 pm 21:55 Clear 75 24 68 20 78 78 NNW 3 6 29.83 1010 10 16 0.00 0.00
10:15 pm 22:15 Clear 77 25 68 20 74 74 NNW 3 6 29.83 1010 10 16 0.00 0.00
10:35 pm 22:35 Clear 75 24 68 20 78 78 N 6 9 29.83 1010 10 16 0.00 0.00
10:55 pm 22:55 Clear 77 25 68 20 74 74 Calm 29.80 1009 10 16 0.00 0.00
11:15 pm 23:15 Clear 75 24 68 20 78 78 Calm 29.80 1009 10 16 0.00 0.00
11:35 pm 23:35 Clear 75 24 68 20 78 78 Calm 29.80 1009 10 16 0.00 0.00
11:55 pm 23:55 Clear 73 23 66 19 78 78 Calm 29.80 1009 10 16 0.00 0.00

Powered by AerisWeather